This demonstration page uses our WeatherBlox Daily Observations layout. Learn more.

Left ArrowRight Arrow

Hourly Observations for June 30, 2021

Temp ( °F °C ) Dew Point ( °F °C ) Humidity (%) Winds ( mph kmh ) Pressure ( in mb ) Visibility ( mi km ) Precip ( " mm )
12:53 am 00:53 Clear 85 29.4 59 15 42 42 Calm 29.72 1006 10 16 0.00 0.00
1:53 am 01:53 Clear 82 27.8 59 15 46 46 NNE 3 6 29.72 1006 10 16 0.00 0.00
2:53 am 02:53 Clear 78 25.6 58 14.4 50 50 NNE 3 6 29.72 1006 10 16 0.00 0.00
3:53 am 03:53 Clear 77 25 58 14.4 52 52 N 3 6 29.71 1006 10 16 0.00 0.00
4:53 am 04:53 Clear 77 25 55 12.8 47 47 N 5 7 29.71 1006 10 16 0.00 0.00
5:53 am 05:53 Sunny 77 25 54 12.2 45 45 NW 5 7 29.72 1007 10 16 0.00 0.00
6:53 am 06:53 Sunny 79 26.1 55 12.8 44 44 Calm 29.72 1007 10 16 0.00 0.00
7:53 am 07:53 Sunny 84 28.9 55 12.8 37 37 Calm 29.73 1007 10 16 0.00 0.00
8:53 am 08:53 Sunny 89 31.7 54 12.2 30 30 Calm 29.73 1007 10 16 0.00 0.00
9:53 am 09:53 Sunny 92 33.3 53 11.7 27 27 S 3 6 29.73 1007 10 16 0.00 0.00
10:53 am 10:53 Sunny 96 35.6 52 11.1 23 23 Calm 29.73 1007 10 16 0.00 0.00
11:53 am 11:53 Sunny 98 36.7 49 9.4 19 19 S 3 6 29.73 1007 10 16 0.00 0.00
12:53 pm 12:53 Sunny 100 37.8 51 10.6 19 19 VRB 5 7 29.72 1007 10 16 0.00 0.00
1:53 pm 13:53 Sunny 103 39.4 52 11.1 18 18 SSE 13 20 29.72 1006 10 16 0.00 0.00
2:53 pm 14:53 Sunny 103 39.4 49 9.4 16 16 SSW 9 15 29.70 1006 10 16 0.00 0.00
3:53 pm 15:53 Sunny 104 40 48 8.9 15 15 S 14 22 29.69 1006 10 16 0.00 0.00
4:53 pm 16:53 Sunny 104 40 46 7.8 14 14 S 14 22 29.67 1005 10 16 0.00 0.00
5:53 pm 17:53 Sunny 103 39.4 45 7.2 14 14 S 14 22 29.66 1004 10 16 0.00 0.00
6:53 pm 18:53 Sunny 101 38.3 46 7.8 15 15 S 12 19 29.66 1004 10 16 0.00 0.00
7:53 pm 19:53 Sunny 97 36.1 54 12.2 24 24 SSE 15 24 29.69 1005 10 16 0.00 0.00
8:53 pm 20:53 Clear 93 33.9 56 13.3 29 29 SSE 9 15 29.70 1006 10 16 0.00 0.00
9:53 pm 21:53 Clear 88 31.1 63 17.2 43 43 SSE 10 17 29.73 1007 10 16 0.00 0.00
10:53 pm 22:53 Clear 87 30.6 59 15 39 39 SSE 8 13 29.75 1008 10 16 0.00 0.00
11:53 pm 23:53 Clear 85 29.4 59 15 42 42 S 7 11 29.76 1008 10 16 0.00 0.00

Powered by AerisWeather